[[{"header":{"parameterUnit":"m.s-1","parameterCategory":1,"la1":30.2991,"la2":30.254,"lo1":-89.0895,"lo2":-89.0444,"dy":0.0017,"dx":0.0017,"nx":28,"ny":28,"refTime":"2023-06-18T21:00:00:Z","depth":0,"parameterNumber":2,"parameterNumberName":"U-component_of_WINDS"},"data":[0,0,0,0,0,0,0,0,0,0,0,0,0,0,0,0,0,0,0,0,0,0,0,0,0,0,0,0,0,0,0,0,0,0,0,0,0,0,0,0,0,0,0,0,0,0,0,0,0,0,0,0,0,0,0,0,0,0,5.9725,5.9726,0,5.9871,5.9873,5.9874,5.9802,5.9799,5.9795,5.9791,5.9945,5.9952,5.9959,0,0,0,0,0,0,0,0,0,0,0,0,0,5.9386,5.9392,5.9724,5.9726,5.9728,5.9871,5.9873,5.9875,5.9803,5.9798,5.9794,5.979,5.9942,5.9951,5.996,0,0,0,0,0,0,0,0,0,0,0,0,0,5.9533,5.9394,5.9724,5.971,5.971,5.987,5.9873,5.9875,5.9804,5.9798,5.9793,5.9787,5.9939,5.995,5.9961,6.0146,0,0,5.9996,6.0001,0,0,0,0,0,0,0,0,5.9524,5.9545,5.971,5.9711,5.9711,5.9813,5.9809,5.9966,5.9806,5.9768,5.9791,5.9785,5.9906,5.9919,5.9959,6.0153,6.016,5.9997,6.0004,6.0009,6.0012,0,0,0,0,0,0,0,5.9514,5.9538,5.9782,5.9712,5.9713,5.9697,5.9711,5.9839,5.9867,5.9771,5.9766,5.9784,5.9905,5.9949,5.9962,6.0162,5.9997,6.0007,6.0014,6.0019,6.0514,6.052,0,0,0,0,0,0,5.9504,5.953,5.9778,5.9787,5.9602,5.9707,5.9724,5.9786,5.9866,5.9872,5.9789,5.9781,5.9932,5.9949,5.9968,6.0188,6.0009,6.002,6.0026,6.0508,6.0516,6.0522,0,0,0,0,0,0,5.9497,5.9527,5.9772,5.9657,5.9687,5.9719,5.979,5.9792,5.9835,5.9879,5.9884,5.9828,5.9928,5.9951,6.0102,6.0192,6.0025,6.0035,6.05,6.051,6.0519,6.063,0,0,0,0,0,0,5.9488,5.9525,5.9595,5.966,5.9694,5.9903,5.9795,5.9799,5.9855,5.9845,5.9917,5.9924,5.9925,6.0085,6.0113,6.0205,6.0044,6.0492,6.0505,6.0516,6.0619,6.0642,6.0663,0,0,0,0,0,5.9476,5.9621,5.9598,5.9629,5.9781,5.9908,5.9928,5.9926,5.9862,5.9933,5.9961,5.9921,6.0178,6.0101,6.0132,6.0228,6.0487,6.0501,6.0515,6.0609,6.0638,6.0662,0,0,0,0,0,0,5.9567,5.9629,5.9605,5.9775,5.9837,5.9896,5.9985,5.9957,6.0038,6.0026,6.0021,6.0038,6.0194,6.0227,6.0139,6.0411,6.0323,6.0344,6.0383,6.0411,6.0433,6.0421,6.0054,0,0,0,0,0,5.9606,5.9704,5.9753,5.9899,5.9931,5.9953,6.0008,6.0001,6.0065,6.0091,6.013,6.0195,6.029,6.0353,6.0443,6.0624,6.0638,6.0706,6.0728,6.0745,6.0763,6.086,6.089,6.0569,6.0569,6.0569,0,0,5.969,5.9736,5.9797,5.9918,5.9965,6.0066,5.9975,6.0086,6.0161,6.0109,6.0252,6.0284,6.0355,6.0521,6.0597,6.0554,6.0855,6.0764,6.0777,6.0785,6.0878,6.0908,6.0935,6.0579,6.0577,6.0575,0,0,5.9892,5.9937,6.0062,6.0112,6.0184,6.0197,6.0228,6.0292,6.031,6.0454,6.0416,6.0506,6.067,6.0723,6.0771,6.0995,6.0961,6.1025,6.1139,6.1233,6.1259,6.1281,6.1359,6.1388,6.1042,6.1043,6.1043,0,5.9986,6.0136,6.0131,6.0245,6.0299,6.0255,6.0382,6.043,6.0529,6.0568,6.0518,6.0723,6.0768,6.0945,6.1,6.1041,6.1075,6.1015,6.1255,6.1278,6.1299,6.1373,6.1403,6.105,6.1049,6.1048,6.1048,0,6.0248,6.0352,6.0445,6.054,6.0605,6.0725,6.0739,6.0805,6.0793,6.0813,6.096,6.1013,6.1113,6.1155,6.1145,6.1331,6.1302,6.1255,6.1165,6.1336,6.1406,6.1435,6.106,6.1057,6.1055,6.1053,0,0,6.0509,6.06,6.0634,6.0676,6.0753,6.0834,6.0953,6.1049,6.1106,6.1176,6.1275,6.1415,6.1371,6.1426,6.1422,6.1506,6.1678,6.1448,6.1449,6.1487,6.1885,6.1919,6.1952,6.1657,6.1662,6.1667,6.1878,0,6.0715,6.0921,6.092,6.1111,6.1207,6.1168,6.1271,6.133,6.1352,6.1438,6.1463,6.1561,6.1497,6.1529,6.1611,6.164,6.1757,6.1625,6.1749,6.1753,6.1729,6.1988,6.2024,6.2221,6.1906,6.191,6.1914,0,6.0983,6.106,6.126,6.1322,6.1363,6.1455,6.1543,6.1626,6.1692,6.1702,6.1764,6.1747,6.1869,6.1778,6.1945,6.1854,6.1906,6.1928,6.1936,6.1945,6.1842,6.2003,6.2284,6.2313,6.1957,6.1954,6.1951,0,6.1151,6.1306,6.1445,6.1483,6.1559,6.1625,6.1661,6.1721,6.1779,6.1857,6.1894,6.1986,6.2036,6.2108,6.2117,6.205,6.2285,6.2194,6.2296,6.2296,6.2345,6.2341,6.2636,6.2382,6.2382,6.2381,6.2381,0,6.138,6.1504,6.1521,6.1607,6.1744,6.1743,6.1879,6.1909,6.1963,6.2054,6.2028,6.2114,6.2121,6.221,6.2218,6.2354,6.2378,6.2389,6.2389,6.239,6.2389,6.2422,6.2408,6.2389,6.2387,6.2386,6.2385,0,6.159,6.1607,6.1756,6.1817,6.1835,6.1933,6.1985,6.2067,6.2087,6.2202,6.2229,6.2261,6.2364,6.238,6.2502,6.2508,6.267,6.2658,6.2647,6.2645,6.2744,6.2734,6.3069,6.3112,6.2832,6.2835,6.2837,0,6.1734,6.1828,6.1898,6.1956,6.1995,6.209,6.2148,6.2152,6.2214,6.2297,6.2369,6.247,6.255,6.2717,6.2751,6.2844,6.2832,6.2944,6.2846,6.2844,6.2832,6.2825,6.2834,6.2961,6.2964,6.2967,6.2969,0,6.1986,6.199,6.2075,6.2164,6.2234,6.2305,6.2371,6.2421,6.2433,6.2505,6.2609,6.2672,6.2796,6.2896,6.2988,6.3025,6.3,6.3,6.3028,6.3028,6.3017,6.3022,6.2696,6.2991,6.2989,6.2988,6.2986,6.2985,6.2166,6.2247,6.2309,6.2405,6.2455,6.2518,6.2597,6.2627,6.2713,6.2813,6.2811,6.2926,6.2991,6.3112,6.3156,6.3246,6.321,6.3251,6.3261,6.3271,6.3279,6.3005,6.3264,6.3263,6.3262,6.3262,6.3261,0,6.2415,6.2453,6.2542,6.2634,6.271,6.2679,6.2751,6.2816,6.2917,6.2979,6.3059,6.3179,6.3276,6.3318,6.3414,6.3478,6.3468,6.3503,6.3497,6.3505,6.3307,6.3272,6.3509,6.3509,6.3509,6.3508,6.3508,6.3508,6.2554,6.2688,6.27,6.286,6.2897,6.3008,6.3052,6.311,6.3159,6.3294,6.3374,6.3401,6.3455,6.3554,6.3642,6.3652,6.3688,6.3727,6.3731,6.3545,6.352,6.3496,6.3463,6.3735,6.3736,6.3922,6.3924,6.3925]},{"header":{"parameterUnit":"m.s-1","parameterCategory":1,"la1":30.2991,"la2":30.254,"lo1":-89.0895,"lo2":-89.0444,"dy":0.0017,"dx":0.0017,"nx":28,"ny":28,"refTime":"2023-06-18T21:00:00:Z","depth":0,"parameterNumber":3,"parameterNumberName":"V-component_of_WINDS"},"data":[0,0,0,0,0,0,0,0,0,0,0,0,0,0,0,0,0,0,0,0,0,0,0,0,0,0,0,0,0,0,0,0,0,0,0,0,0,0,0,0,0,0,0,0,0,0,0,0,0,0,0,0,0,0,0,0,0,0,3.5399,3.5401,0,3.5536,3.5537,3.5539,3.5527,3.5525,3.5523,3.5521,3.5663,3.5668,3.5674,0,0,0,0,0,0,0,0,0,0,0,0,0,3.5129,3.5134,3.5399,3.5401,3.5403,3.5535,3.5537,3.5539,3.5528,3.5525,3.5523,3.552,3.5661,3.5667,3.5674,0,0,0,0,0,0,0,0,0,0,0,0,0,3.5254,3.5136,3.5399,3.5413,3.5415,3.5535,3.5537,3.554,3.5528,3.5525,3.5522,3.5519,3.5658,3.5667,3.5675,3.579,0,0,3.5701,3.5705,0,0,0,0,0,0,0,0,3.5247,3.5264,3.5409,3.5412,3.5415,3.5511,3.5494,3.5624,3.5529,3.5486,3.5521,3.5518,3.5615,3.5627,3.5659,3.5797,3.5803,3.5702,3.5707,3.5711,3.5713,0,0,0,0,0,0,0,3.5239,3.5258,3.5453,3.5411,3.5415,3.5413,3.5427,3.5518,3.5566,3.5489,3.5489,3.5505,3.5616,3.5651,3.5662,3.5805,3.5702,3.5709,3.5715,3.5718,3.6042,3.6046,0,0,0,0,0,0,3.5227,3.5251,3.5449,3.5457,3.5322,3.542,3.5436,3.5484,3.5565,3.5574,3.5507,3.5504,3.5638,3.5653,3.5667,3.5807,3.5711,3.5719,3.5724,3.6039,3.6043,3.6047,0,0,0,0,0,0,3.5221,3.5244,3.5443,3.5354,3.5379,3.5428,3.5482,3.5488,3.5523,3.5579,3.5587,3.5534,3.5636,3.5655,3.5759,3.5811,3.5723,3.573,3.6035,3.604,3.6045,3.6086,0,0,0,0,0,0,3.5213,3.5242,3.5286,3.5355,3.5384,3.5533,3.5485,3.5493,3.5538,3.5534,3.5606,3.5615,3.5635,3.5747,3.5768,3.5821,3.5737,3.603,3.6037,3.6043,3.608,3.6092,3.6102,0,0,0,0,0,3.5204,3.5293,3.5289,3.5313,3.544,3.5536,3.5552,3.5573,3.5542,3.5586,3.5622,3.5613,3.5802,3.5757,3.5781,3.5838,3.6027,3.6035,3.6043,3.6075,3.609,3.6102,0,0,0,0,0,0,3.523,3.5302,3.5298,3.5413,3.5468,3.5534,3.5591,3.5588,3.5653,3.5648,3.5671,3.5687,3.5792,3.5825,3.5774,3.5953,3.591,3.5923,3.5927,3.5941,3.5952,3.5942,3.5744,0,0,0,0,0,3.5249,3.532,3.538,3.5475,3.5503,3.5542,3.5585,3.5595,3.5654,3.5678,3.5721,3.5778,3.5851,3.5898,3.5968,3.6085,3.61,3.6136,3.6147,3.6155,3.6166,3.623,3.6246,3.6073,3.6073,3.6072,0,0,3.5289,3.5337,3.5381,3.5481,3.5526,3.5599,3.5562,3.5642,3.5696,3.569,3.579,3.5824,3.589,3.6001,3.6052,3.6032,3.6218,3.6165,3.6172,3.6178,3.624,3.6256,3.6271,3.6078,3.6077,3.6076,0,0,3.5399,3.5443,3.5527,3.5572,3.5639,3.5664,3.5684,3.5751,3.5772,3.5873,3.587,3.5936,3.606,3.6106,3.6146,3.6274,3.6268,3.6296,3.6353,3.6415,3.6428,3.6441,3.6486,3.6501,3.6306,3.6307,3.6307,0,3.5441,3.5551,3.557,3.565,3.5694,3.5691,3.5776,3.5819,3.5906,3.5936,3.5913,3.6068,3.6112,3.6233,3.6264,3.6297,3.632,3.6288,3.6425,3.6437,3.6449,3.6492,3.6509,3.631,3.6309,3.6309,3.6309,0,3.5598,3.5675,3.5734,3.5817,3.5868,3.595,3.5982,3.6031,3.6037,3.6065,3.6168,3.622,3.63,3.633,3.6337,3.6452,3.6438,3.642,3.6377,3.6468,3.6509,3.6526,3.6314,3.6313,3.6312,3.6311,0,0,3.5729,3.5821,3.5843,3.588,3.5954,3.6013,3.6095,3.6172,3.6214,3.6274,3.6343,3.6447,3.643,3.6476,3.6488,3.6543,3.6639,3.6518,3.6519,3.6538,3.6769,3.6782,3.68,3.6636,3.6639,3.6641,3.6763,0,3.5847,3.5991,3.601,3.6138,3.6209,3.6207,3.6278,3.6331,3.6359,3.6423,3.6454,3.6527,3.65,3.6527,3.6581,3.6616,3.6686,3.6608,3.67,3.6703,3.6683,3.6822,3.6836,3.6948,3.6779,3.6782,3.6784,0,3.6003,3.6066,3.6201,3.6264,3.6294,3.6358,3.643,3.6491,3.6551,3.6567,3.6618,3.6623,3.6708,3.6662,3.6779,3.6725,3.6764,3.6787,3.6792,3.6801,3.6749,3.6834,3.6985,3.7001,3.6809,3.6807,3.6805,0,3.6084,3.6203,3.6299,3.6331,3.6407,3.6451,3.6485,3.6542,3.6587,3.665,3.668,3.6752,3.6792,3.6848,3.6873,3.6837,3.6988,3.6944,3.7004,3.7003,3.7035,3.7033,3.7193,3.7061,3.7061,3.706,3.706,0,3.6213,3.6295,3.6336,3.6395,3.6487,3.6508,3.6599,3.6631,3.6682,3.6747,3.675,3.6811,3.684,3.6905,3.6926,3.7019,3.7037,3.7052,3.7057,3.7052,3.705,3.7078,3.707,3.7065,3.7064,3.7063,3.7062,0,3.6319,3.635,3.6454,3.6517,3.6535,3.66,3.6654,3.6711,3.6738,3.682,3.6841,3.6884,3.6961,3.6992,3.7086,3.71,3.7207,3.7205,3.7187,3.7188,3.7245,3.7239,3.7429,3.7455,3.7306,3.7307,3.7308,0,3.6399,3.6462,3.6532,3.6575,3.661,3.6681,3.6726,3.675,3.6798,3.687,3.6918,3.6995,3.7058,3.7181,3.7221,3.7293,3.7293,3.7355,3.7304,3.7297,3.7294,3.7289,3.7296,3.7364,3.7366,3.7367,3.7368,0,3.6537,3.6549,3.6615,3.6686,3.674,3.6797,3.6853,3.6888,3.692,3.6974,3.7052,3.7101,3.7197,3.7273,3.7348,3.7383,3.7381,3.7383,3.7401,3.7397,3.7383,3.739,3.7212,3.7379,3.7378,3.7377,3.7376,3.7376,3.6632,3.6688,3.6746,3.6818,3.6863,3.6914,3.6971,3.7005,3.7071,3.715,3.716,3.7245,3.7302,3.7402,3.744,3.7506,3.749,3.7515,3.7522,3.7528,3.7531,3.7372,3.752,3.7519,3.7519,3.7519,3.7519,0,3.677,3.6807,3.6874,3.6951,3.7008,3.7001,3.7062,3.711,3.7184,3.7238,3.7299,3.739,3.7463,3.7509,3.7583,3.7627,3.7628,3.7646,3.7643,3.7651,3.7542,3.7519,3.7644,3.7644,3.7644,3.7644,3.7644,3.7644,3.6849,3.6942,3.6961,3.7076,3.7113,3.7195,3.723,3.7278,3.7321,3.7421,3.7482,3.7511,3.7561,3.7639,3.7706,3.7718,3.7745,3.7764,3.7774,3.7671,3.7658,3.7646,3.7625,3.7769,3.777,3.7877,3.7878,3.7879]}]]